User: anonymous   Login
Location: Kings Park
(40.8862°N, 73.2573°W)
Time: 22:27:47
(UTC+00:00)
Language:

Cosmos 1408 - Orbit

View from above orbital plane
View from above orbital plane
View from above satellite
View from above satellite

Ground track
Ground track

The orbit data is extracted from the following two-line orbital elements,

1 13552U 82092A   21018.14769756  .00000937  00000-0  32450-4 0  9991
2 13552  82.5660  64.1388 0019431  95.1797 265.1660 15.28314238 97167
Epoch (UTC): 18 January 2021 03:32:41
Eccentricity: 0.0019431
inclination: 82.5660°
perigee height: 467 km
apogee height: 494 km
right ascension of ascending node: 64.1388°
argument of perigee: 95.1797°
revolutions per day: 15.28314238
mean anomaly at epoch: 265.1660°
orbit number at epoch: 9716

The dashed part of the orbit path shows where the satellite is in the earth's shadow,  

DLR